Location: D�nning
(49.2479°N, 12.8491°E)
Time: 09:27:56
(UTC+00:00)

Cosmos 1937 Rocket - Pass Details

Date: 18 September 2020
Orbit: 747 x 779 km, 74.0° (Epoch: 27 October)

Event Time Altitude Azimuth Distance (km) Brightness Sun altitude
Rises 18:54:38 0° 218° (SW) 3,234 6.9 -16.7°
Reaches altitude 10° 18:57:05 10° 224° (SW) 2,307 6.2 -17.1°
Maximum altitude 19:02:10 50° 299° (WNW) 973 4.4 -17.8°
Drops below altitude 10° 19:07:15 10° 15° (NNE) 2,301 6.1 -18.6°
Sets 19:09:41 0° 21° (NNE) 3,225 6.8 -18.9°
